TimeEST,TemperatureF,Dew PointF,Humidity,Sea Level PressureIn,VisibilityMPH,Wind Direction,Wind SpeedMPH,Gust SpeedMPH,PrecipitationIn,Events,Conditions,WindDirDegrees,DateUTC
12:53 AM,72.0,66.9,84,29.98,10.0,North,6.9,-,N/A,,Overcast,360,2013-02-28 05:53:00
1:50 AM,71.6,66.2,83,29.96,10.0,North,9.2,-,0.00,,Overcast,360,2013-02-28 06:50:00
1:53 AM,71.1,66.0,84,29.96,10.0,North,8.1,-,0.00,,Overcast,360,2013-02-28 06:53:00
2:53 AM,71.1,64.9,81,29.94,10.0,North,5.8,-,N/A,,Overcast,350,2013-02-28 07:53:00
3:53 AM,71.1,66.0,84,29.94,10.0,North,3.5,-,N/A,,Mostly Cloudy,350,2013-02-28 08:53:00
4:53 AM,72.0,66.0,81,29.96,10.0,North,11.5,-,N/A,,Mostly Cloudy,350,2013-02-28 09:53:00
5:53 AM,71.1,64.9,81,29.96,10.0,North,10.4,-,N/A,,Overcast,360,2013-02-28 10:53:00
6:53 AM,71.1,64.0,78,29.98,10.0,North,11.5,-,N/A,,Overcast,360,2013-02-28 11:53:00
7:53 AM,71.1,63.0,75,29.99,10.0,North,9.2,-,N/A,,Partly Cloudy,10,2013-02-28 12:53:00
8:53 AM,71.1,63.0,75,30.00,10.0,NNE,11.5,-,N/A,,Overcast,20,2013-02-28 13:53:00
9:53 AM,71.1,62.1,73,30.01,10.0,North,12.7,-,N/A,,Overcast,10,2013-02-28 14:53:00
10:53 AM,73.0,61.0,66,30.02,10.0,North,11.5,-,N/A,,Overcast,10,2013-02-28 15:53:00
11:53 AM,71.1,61.0,70,30.02,10.0,NNE,12.7,-,N/A,,Overcast,20,2013-02-28 16:53:00
12:53 PM,71.1,60.1,68,30.00,10.0,North,10.4,18.4,N/A,,Overcast,10,2013-02-28 17:53:00
1:53 PM,71.1,57.0,61,29.97,10.0,North,10.4,-,N/A,,Mostly Cloudy,10,2013-02-28 18:53:00
2:53 PM,72.0,55.0,55,29.96,10.0,NNE,8.1,-,N/A,,Overcast,30,2013-02-28 19:53:00
3:53 PM,70.0,55.0,59,29.96,10.0,North,9.2,-,N/A,,Overcast,360,2013-02-28 20:53:00
4:53 PM,70.0,55.0,59,29.97,10.0,North,10.4,-,N/A,,Overcast,360,2013-02-28 21:53:00
5:53 PM,66.9,54.0,63,29.97,10.0,NNW,10.4,-,N/A,,Overcast,340,2013-02-28 22:53:00
6:53 PM,60.8,55.4,82,29.98,10.0,Calm,Calm,-,N/A,Rain,Light Rain,0,2013-02-28 23:53:00
7:53 PM,64.9,57.0,75,29.98,10.0,Calm,Calm,-,N/A,,Overcast,0,2013-03-01 00:53:00
8:53 PM,66.9,57.0,70,29.98,10.0,North,3.5,-,N/A,,Overcast,350,2013-03-01 01:53:00
9:53 PM,69.1,53.1,57,29.99,10.0,North,5.8,-,N/A,,Overcast,350,2013-03-01 02:53:00
10:53 PM,69.1,54.0,58,29.99,10.0,North,8.1,-,N/A,,Overcast,10,2013-03-01 03:53:00
11:53 PM,69.1,55.9,63,29.98,10.0,North,4.6,-,N/A,,Overcast,10,2013-03-01 04:53:00